SCP
0 0 0 0 0 0 0 0 0 0 0 0 0 0 0 0 0 0 0 0 0 0 0 0 0 0 0 0 0 0 0 0 0 0 0 0 0 0 0 0 0 0 0
0 0 0 0 0 0 0 0 0 0 0 0 0 0 0 0 0 0 0 0 0 0 0 0 0 0 0 0 0 0 0 0 0 0 0 0 0 0 0 0 0 0 0
0 0 0 0 0 0 0 0 0 0 0 0 0 0 0 0 0 0 0 0 0 0 0 0 0 0 0 0 0 0 0 0 0 0 0 0 0 0 0 0 0 0 0
0 0 0 0 0 0 0 0 0 0 0 0 0 0 0 0 0 0 0 0 0 0 0 0 0 0 0 0 0 0 0 0 0 0 0 0 0 0 0 0 0 0 0
0 0 0 0 0 0 0 0 0 0 0 0 0 0 0 0 0 0 0 0 0 0 0 0 0 0 0 0 0 0 0 0 0 0 0 0 0 0 0 0 0 0 0
0 0 0 0 0 0 0 0 0 0 0 0 0 0 0 0 0 0 0 0 0 0 0 0 0 0 0 0 0 0 0 0 0 0 0 0 0 0 0 0 0 0 0
0 0 0 0 0 0 0 0 0 0 0 0 0 0 0 0 0 0 0 0 0 0 0 0 0 0 0 0 0 0 0 0 0 0 0 0 0 0 0 0 0 0 0
0 0 0 0 0 0 0 0 0 0 0 0 0 0 0 0 0 0 0 0 0 0 0 0 0 0 0 0 0 0 0 0 0 0 0 0 0 0 0 0 0 0 0
0 0 0 0 0 0 0 0 0 0 0 0 0 0 0 0 0 0 0 0 0 0 0 0 0 0 0 0 0 0 0 0 0 0 0 0 0 0 0 0 0 0 0
0 0 0 0 0 0 0 0 0 0 0 0 0 0 0 0 0 0 0 0 0 0 0 0 0 0 0 0 0 0 0 0 0 0 0 0 0 0 0 0 0 0 0
0 0 0 0 0 0 0 0 0 0 0 0 0 0 0 0 0 0 0 0 0 0 0 0 0 0 0 0 0 0 0 0 0 0 0 0 0 0 0 0 0 0 0
0 0 0 0 0 0 0 0 0 0 0 0 0 0 0 0 0 0 0 0 0 0 0 0 0 0 0 0 0 0 0 0 0 0 0 0 0 0 0 0 0 0 0
0 0 0 0 0 0 0 0 0 0 0 0 0 0 0 0 0 0 0 0 0 0 0 0 0 0 0 0 0 0 0 0 0 0 0 0 0 0 0 0 0 0 0
0 0 0 0 0 0 0 0 0 0 0 0 0 0 0 0 0 0 0 0 0 0 0 0 0 0 0 0 0 0 0 0 0 0 0 0 0 0 0 0 0 0 0
0 0 0 0 0 0 0 0 0 0 0 0 0 0 0 0 0 0 0 0 0 0 0 0 0 0 0 0 0 0 0 0 0 0 0 0 0 0 0 0 0 0 0
0 0 0 0 0 0 0 0 0 0 0 0 0 0 0 -0 0 0 0 0 0 0 0 0 0 0 0 0 0 0 0 0 0 0 0 0 0 0 0 0 0 0 0
0 0 0 0 0 0 0 0 0 0 0 0 0 0 0 0 0 0 0 0 0 0 0 0 0 0 0 0 0 0 0 0 0 0 0 0 0 0 0 0 0 0 0
0 0 0 0 0 0 0 0 0 0 0 0 0 0 0 0 0 0 0 0 0 0 0 0 0 0 0 0 0 0 0 0 0 0 0 0 0 0 0 0 0 0 0
-0 0 0 0 0 0 0 0 0 0 0 0 0 0 0 0 0 0 0 0 0 0 0 0 0 0 0 0 0 0 0 0 0 0 0 0 0 0 0 0 0 0 0
0 0 0 0 0 0 0 0 0 0 0 0 0 0 0 0 0 0 0 0 0 0 0 0 0 0 0 0 0 0 0 0 0 0 0 0 0 0 0 0 0 0 0
0 0 0 0 0 0 0 0 0 0 0 0 0 0 0 0 0 0 0 0 0 0 0 0 0 0 0 0 0 0 0 0 0 0 0 0 0 0 0 0 0 0 0
0 0 0 0 0 0 0 0 0 0 0 0 0 0 0 0 0 0 0 0 0 0 0 0 0 0 0 0 0 0 0 0 0 0 0 0 0 0 0 0 0 0 0
0 0 0 0 0 0 0 0 0 0 0 0 0 0 0 0 0 0 0 0 0 0 0 0 0 0 0 0 0 0 0 0 0 0 0 0 0 0 0 0 0 0 0
0 0 0 0 0 0 0 0 0 0 0 0 0 0 0 0 0 0 0 0 0 0 0 0 0 0 0 0 0 0 0 0 0 0 0 0 0 0 0 0 0 0 0
0 0 0 0 0 0 0 0 0 0 0 0 0 0 0 0 0 0 0 0 0 0 0 0 0 0 0 0 0 0 0 0 0 0 0 0 0 0 0 0 0 0 0
0 0 0 0 0 0 0 0 0 0 0 0 0 0 0 0 0 0 0 0 0 0 0 0 0 0 0 0 0 0 0 0 0 0 0 0 0 0 0 0 0 0 0
Wind_Speed
1 1 0 1 0 0 0 1 1 1 1 2 1 1 1 2 1 1 1 1 1 1 3 4 4 5 5 5 4 5 5 5 5 6 6 6 6 6 7 7 7 7 7
1 1 0 1 0 1 1 1 2 1 1 1 2 2 2 1 1 1 1 1 1 1 2 3 4 3 4 4 4 4 4 5 5 5 5 6 6 7 7 7 7 7 8
1 1 1 0 0 1 1 1 2 1 1 1 2 2 2 1 1 1 1 1 1 1 2 3 3 3 3 4 4 4 4 4 4 5 5 6 6 7 7 7 7 7 8
1 1 1 0 0 0 0 1 1 1 1 1 1 2 2 1 1 1 1 1 0 1 1 2 3 3 3 4 4 4 4 3 4 5 5 6 6 7 7 7 7 7 8
1 1 1 0 0 0 0 1 1 1 1 1 1 1 1 1 1 1 0 1 1 1 1 1 1 2 2 3 4 5 5 5 4 5 5 5 6 7 7 7 7 7 8
2 2 1 1 1 1 0 1 1 1 1 1 2 2 1 1 1 1 0 1 1 1 1 1 0 1 2 3 4 6 6 7 6 6 6 6 7 7 8 8 8 8 8
1 1 1 1 1 1 0 1 1 1 1 1 1 2 2 2 1 1 0 0 1 1 1 1 1 1 1 2 4 6 7 8 8 7 7 7 7 8 8 8 8 8 8
1 1 1 1 1 1 1 1 1 1 1 1 0 1 1 2 1 0 0 0 0 0 1 1 1 1 1 1 2 5 7 8 8 8 7 7 7 7 8 8 8 8 7
2 2 1 1 1 1 1 0 1 1 1 1 1 0 0 1 2 1 1 1 1 0 0 0 0 0 0 0 1 3 6 7 8 8 8 7 7 8 8 7 7 8 7
2 2 1 1 1 1 1 1 1 1 0 1 1 0 1 1 1 2 2 1 1 1 1 1 0 0 0 0 1 3 4 6 8 9 9 9 8 8 8 8 8 8 7
1 1 1 1 1 1 1 1 1 1 0 1 1 1 1 1 1 2 3 2 2 2 1 1 1 0 0 0 0 2 4 6 8 9 9 9 9 9 8 8 7 6 6
0 1 1 1 0 0 0 1 1 1 1 1 1 1 1 1 1 1 3 3 3 2 2 1 1 1 1 1 0 1 3 5 7 8 9 9 9 9 8 8 8 6 6
0 1 0 0 0 0 1 0 1 1 1 1 1 1 1 1 1 1 2 3 3 3 2 1 1 1 1 1 0 2 3 5 7 8 9 9 9 8 8 8 8 7 7
1 1 1 0 1 1 1 0 0 1 1 1 2 2 1 1 1 1 2 2 3 3 2 2 1 1 1 0 1 2 2 5 6 7 8 8 8 8 7 7 7 7 7
1 1 1 1 1 1 1 1 1 1 1 1 2 2 1 1 1 1 1 1 2 4 4 2 1 1 0 0 1 1 2 4 6 7 8 8 7 7 7 7 7 7 6
1 1 1 2 2 2 2 1 1 2 2 2 2 2 2 1 1 1 1 2 2 3 4 2 2 2 1 1 2 2 2 5 6 7 8 7 7 6 7 7 7 6 6
2 2 2 2 2 2 2 2 2 2 2 2 2 2 3 2 2 2 1 2 2 2 5 4 2 2 2 2 2 2 2 2 3 7 8 8 7 7 7 7 7 6 6
3 3 3 3 3 3 3 3 3 3 3 3 3 3 3 2 3 2 2 2 3 3 4 6 4 2 3 2 2 2 2 2 2 6 7 8 8 8 8 7 6 6 6
3 3 3 3 3 3 3 3 4 4 4 4 4 4 4 3 3 2 2 3 3 3 3 4 4 3 2 2 2 2 3 2 3 4 6 7 8 9 8 8 7 6 6
3 3 3 4 4 3 3 3 3 3 4 4 4 4 4 4 4 3 3 3 3 3 3 3 4 3 2 2 1 2 3 2 3 3 4 5 7 8 8 8 8 7 7
4 4 4 4 4 4 4 4 3 4 4 4 4 4 4 5 5 4 3 3 3 3 3 3 4 3 3 2 2 2 3 3 3 2 2 3 3 3 4 7 7 6 6
4 4 4 4 4 4 6 6 5 4 4 5 5 5 4 5 6 7 7 7 6 5 4 4 4 4 5 4 2 2 2 2 3 2 1 4 3 4 3 3 5 6 7
4 4 5 4 5 5 7 8 8 5 5 5 5 4 4 4 6 4 6 8 8 9 8 5 5 6 5 4 3 3 3 3 4 3 1 4 2 4 3 4 6 7 7
4 4 5 5 5 6 8 9 8 6 5 6 6 6 5 5 5 5 5 5 5 6 7 6 5 6 5 4 3 3 4 4 4 3 2 3 2 3 3 3 6 7 7
4 4 5 5 6 6 8 9 8 4 5 6 6 6 6 6 8 8 5 5 6 5 7 8 8 7 7 7 4 2 2 2 4 3 2 2 2 2 3 3 4 5 6
5 4 5 5 6 6 9 10 9 4 5 5 5 5 8 8 9 9 6 5 6 6 4 4 5 6 6 6 7 4 3 3 3 3 2 2 2 1 3 2 2 2 3
Wind_Direction
85 85 100 108 95 15 1 284 278 284 286 275 287 297 296 296 307 87 121 121 101 348 315 292 286 284 278 276 270 269 272 277 277 277 273 269 268 273 277 281 280 278 277
92 99 68 69 35 355 328 297 307 325 302 308 302 299 298 307 345 69 116 112 92 49 349 319 300 295 293 293 290 284 276 277 283 288 286 281 276 276 275 277 280 284 282
73 96 95 75 345 328 331 326 327 336 321 324 323 321 321 338 8 31 88 109 127 102 14 338 324 307 312 311 310 304 296 290 292 290 290 289 285 279 277 276 276 281 283
84 91 107 123 339 6 328 314 319 339 338 342 334 322 327 333 349 356 68 94 107 110 57 360 335 329 325 324 322 328 325 315 304 300 297 294 290 283 281 286 286 283 283
71 85 98 114 69 62 346 311 336 332 315 321 303 291 311 325 308 325 31 88 74 60 93 73 2 344 347 340 340 337 328 324 310 298 297 295 296 290 284 284 287 283 281
48 54 42 41 53 73 17 338 318 320 299 306 312 302 262 247 261 281 341 77 81 66 49 61 53 326 349 351 349 341 333 325 318 305 297 294 291 289 285 287 289 287 282
60 58 40 33 31 37 21 358 354 327 317 353 355 318 286 247 213 205 164 82 92 65 47 42 50 32 355 5 352 345 336 326 320 311 303 299 294 294 293 288 287 286 286
82 59 47 31 35 16 20 18 24 360 316 353 27 330 323 317 310 230 155 169 144 43 40 37 39 39 36 31 357 353 340 329 320 316 308 301 302 304 299 289 283 279 282
99 79 45 33 19 28 3 326 40 36 328 310 44 97 309 275 312 288 234 214 208 253 275 298 14 351 19 55 360 348 346 333 322 320 321 314 306 310 309 305 293 284 281
99 93 65 40 28 23 6 322 29 23 26 298 304 296 236 228 280 303 288 267 273 263 257 295 288 265 64 74 40 2 345 334 328 324 323 322 317 314 314 312 309 300 293
126 121 104 58 26 11 359 345 346 358 318 269 277 287 294 295 248 245 281 284 290 274 253 242 238 228 201 171 171 344 335 325 322 321 324 324 324 322 324 323 326 321 316
115 139 149 141 148 348 331 316 314 283 281 289 294 281 255 254 263 257 274 288 281 270 260 241 227 212 207 202 217 335 316 316 315 315 317 324 329 331 335 332 333 336 338
170 218 187 184 208 248 257 279 291 284 266 257 271 283 284 269 265 261 270 285 290 283 261 248 221 203 211 159 243 295 294 308 310 311 313 320 328 330 333 335 334 331 333
192 190 189 229 249 249 248 232 279 279 268 257 269 271 272 277 286 258 245 266 290 288 271 263 259 219 203 160 301 305 291 304 306 309 311 316 319 323 327 329 333 329 326
221 198 224 255 265 260 245 222 229 277 279 261 258 261 259 265 276 289 268 228 243 278 282 269 274 265 262 239 285 283 283 300 303 305 306 309 311 314 316 318 322 326 322
232 226 234 241 247 248 239 227 236 246 250 266 260 264 267 259 260 263 260 255 233 242 268 274 266 283 284 289 278 273 274 296 298 298 299 301 303 304 307 310 310 313 312
220 226 230 232 235 236 231 224 227 230 240 256 261 256 262 260 253 249 253 256 251 239 261 279 277 292 273 276 294 281 274 270 281 289 290 293 295 294 297 302 299 301 302
225 223 227 230 232 231 227 228 235 231 231 243 252 253 260 261 254 246 246 251 252 244 252 274 281 280 269 259 264 275 281 275 267 285 287 293 293 291 294 294 291 293 294
230 231 228 236 237 232 228 231 232 235 234 235 239 243 251 251 257 254 251 255 256 259 251 263 276 273 271 273 282 284 281 280 278 281 282 285 289 290 292 290 287 287 287
224 230 234 238 239 237 234 235 235 238 245 246 241 238 239 238 244 246 251 253 257 262 264 267 274 280 273 278 267 274 289 283 281 283 279 281 288 287 287 286 283 283 281
226 227 234 239 236 234 232 229 235 243 245 250 249 242 237 237 241 243 249 250 252 254 261 265 271 278 275 276 263 254 276 291 281 261 276 278 280 273 274 276 276 274 275
230 229 233 235 236 239 234 230 231 242 248 247 250 248 242 239 244 251 256 255 246 243 248 252 259 263 267 261 257 259 273 293 288 279 283 279 260 264 263 252 266 273 276
230 233 235 236 239 242 239 237 236 238 244 247 247 247 251 242 237 240 251 257 255 253 247 248 256 259 265 257 253 259 252 253 260 264 281 276 262 261 266 267 269 273 275
227 231 235 238 242 244 241 242 242 241 244 246 242 237 240 245 236 233 240 248 250 250 248 247 249 257 262 257 239 241 250 265 272 264 215 260 270 265 280 275 269 267 271
235 234 232 234 240 248 240 239 237 238 245 249 246 239 237 242 243 238 241 250 259 260 252 246 249 257 262 265 260 264 263 269 276 269 218 234 270 289 285 275 274 270 274
237 238 239 235 237 245 244 239 233 232 244 250 249 244 242 245 251 246 237 239 253 259 258 258 254 257 259 261 258 237 232 246 260 266 230 216 258 311 303 289 286 288 280